Regional Weather Roundup
Issued by NWS Newport/Morehead, NC

Current Version | Previous Version | Graphics & Text | Print | Product List | Glossary Off
Versions: 1 2 3 4 5 6 7 8 9 10 11 12 13 14 15 16 17 18 19 20 21 22 23 24 25 26 27 28 29 30 31 32 33 34 35 36 37 38 39 40 41 42 43 44 45 46 47 48 49 50

000
ASUS42 KMHX 180722
RWRMHX
WEATHER ROUNDUP FOR EASTERN NORTH CAROLINA
NATIONAL WEATHER SERVICE NEWPORT/MOREHEAD CITY NC
200 AM EST THU DEC 18 2014

NOTE: "FAIR" INDICATES FEW OR NO CLOUDS BELOW 12,000 FEET
WITH NO SIGNIFICANT WEATHER AND/OR OBSTRUCTIONS TO VISIBILITY

NCZ015>017-031-032-045>047-102-103-180800-
NORTH COAST

CITY           SKY/WX    TMP DP  RH WIND       PRES   REMARKS
EDENTON          N/A     43  34  70 NW6       30.07R
ELIZABETH CITY CLEAR     44  34  67 W7        30.06R
KITTY HAWK     MOSUNNY   47  42  82 W6        30.03R
MANTEO         MOCLDY    45  40  83 NW6       30.04R

$$

NCZ045>047-081-094-103-104-180800-
CENTRAL COAST

CITY           SKY/WX    TMP DP  RH WIND       PRES   REMARKS
FRISCO         CLOUDY    49  45  86 W7        30.04S
SWANQUARTER      N/A     45 N/A N/A NW7       30.03R

$$

NCZ095-097-098-100-101-180800-
SOUTHERN COAST

CITY           SKY/WX    TMP DP  RH WIND       PRES   REMARKS
BEAUFORT       MOCLDY    45  43  93 CALM      30.07R
CEDAR ISLAND     N/A     46 N/A N/A SW6       30.09S
JACKSONVILLE   PTCLDY    43  40  89 SW3       30.07R
PINEY ISLAND   NOT AVBL
WILMINGTON     PTCLDY    39  39 100 CALM      30.08R


$$

NCZ011>013-027>030-043-044-078>080-089-090>093-098-180800-
COASTAL PLAIN

CITY           SKY/WX    TMP DP  RH WIND       PRES   REMARKS
AHOSKIE        CLEAR     34  33  96 CALM      30.09R
CLINTON        PTCLDY    39  39 100 CALM      30.09R
ELIZABETHTOWN  CLEAR     40  38  94 CALM      30.08R
GOLDSBORO      CLOUDY    42  42  98 CALM      30.07R
GREENVILLE       N/A     37  37 100 CALM      30.09R FOG
HAVELOCK       PTCLDY    44  40  85 CALM      30.08R
KENANSVILLE    PTCLDY    38  37  98 CALM      30.09R
KINSTON        CLOUDY    39  37  95 CALM      30.09R
NEW BERN       CLOUDY    47  39  74 W3        30.08R
RICHLANDS      MOCLDY    39  36  87 NW3       30.09R
ROCKY MOUNT    MOCLDY    43  30  60 NW5       30.09R
WASHINGTON     CLOUDY    43  38  84 CALM      30.08R
WHITEVILLE     CLEAR     37  35  93 SW3       30.08R

$$

AMZ130-135-150-152-154-156-158-170-250-252-270-ANZ085-086-088-633-658-670-180800-
MARINE OBSERVATIONS

STATION/POSITION TIME  TEMP    WIND        PRES    WAVE   SWELL
                       AIR SEA DIR/SP/G            HT/PER HT/PER
                 (UTC) (F)     (DEG/KT/KT) (MB)    (FT/S) (FT/S)
CHESAPEAKE LIGHT 0700   44     360/ 20/ 22 1018.3
64 E VA BEACH    0700   52 54  340/ 14/ 16 1015.6    3/ 8   2/ 8
DUCK             0700   47 49  300/ 10/ 12 1016.5
2 E DUCK         0700      49                N/A     1/11
10 NE DUCK       0700      50                N/A     2/10
OREGON INLET     0700   48 51  280/  9/ 12 1017.0
13E OREGON INLT  0700      53                N/A     2/10
HATTERAS CG      0700   51 55  270/  8/ 11 1017.5
DIAMOND BUOY     0700   57                 1017.3    3/ 4
17 S OCRACOKE    NOT AVBL
CAPE LOOKOUT     0700   54     280/  9/ 10 1017.9
BEAUFORT LAB     0700   50 53  260/  2/  3 1017.0
30 SE NEW RIVER  0700   57 60  280/ 10/ 12 1018.5    2/ 7   2/ 7
5 SE WRIGHTSVLE  NOT AVBL
225 S CAPE HAT   0623   69 72  260/ 10/ 14 1018.4    4/ 7   3/ 7
41 SE CHARLESTON 0700   61 73  280/ 10/ 16 1018.8    2/10   2/10

$$


USA.gov is the U.S. government's official web portal to all federal, state and local government web resources and services.